DW4691 Weather Reports


time (UTC)temp
C
wind
direction
speed
KPH
gust
KPH
rain 1hr
cm
rain 24hr
cm
rain mn
cm
humidity
%
barometer
mb
20260502151606 17 0 0.0 1.6 0.00 2.29 0.00 79 1020.7
20260502123049 11 0 0.0 0.0 0.00 4.95 0.00 93 1019.1
20260502121551 10 0 0.0 0.0 0.00 4.95 0.00 93 1018.9
20260502114549 10 0 0.0 0.0 0.00 5.74 0.00 93 1018.4
20260502113045 10 0 0.0 0.0 0.00 5.74 0.00 93 1018.3
20260502111545 11 0 0.0 0.0 0.00 5.74 0.00 93 1018.2
20260502110054 11 0 0.0 0.0 0.00 5.74 0.00 93 1018.0
20260502104543 11 0 0.0 0.0 0.00 6.27 0.00 93 1018.0
20260502103054 11 0 0.0 0.0 0.00 6.27 0.00 92 1017.8
20260502101557 11 0 0.0 0.0 0.00 6.27 0.00 92 1017.7
20260502100108 11 0 0.0 0.0 0.00 6.27 0.00 92 1017.5
20260502070049 12 0 0.0 0.0 0.00 7.82 0.00 92 1016.4
20260502064606 12 0 0.0 1.6 0.00 7.82 0.00 92 1016.3
20260502063042 12 0 0.0 3.2 0.00 7.82 0.00 92 1016.1
20260502061553 12 0 0.0 4.8 0.00 7.82 0.00 92 1016.0
20260502060047 12 0 0.0 4.8 0.00 7.82 0.00 92 1016.1
20260502054545 12 0 0.0 0.0 0.00 7.90 0.00 92 1016.1
20260502053047 12 0 0.0 6.4 0.00 7.90 0.00 93 1016.1
20260502051545 12 0 0.0 6.4 0.00 7.90 0.00 93 1016.0
20260502050042 12 0 0.0 3.2 0.00 7.90 0.00 93 1016.1
20260502044550 12 0 0.0 3.2 0.00 7.90 7.90 93 1016.0
20260502043055 12 0 0.0 3.2 0.00 7.90 7.90 93 1016.0
20260502041552 12 107 0.0 1.6 0.00 7.90 7.90 93 1015.7
20260502040046 13 0 0.0 4.8 0.00 7.90 7.90 93 1015.9
20260502034551 13 0 0.0 0.0 0.00 7.90 7.90 94 1016.0
20260502033044 13 0 0.0 1.6 0.00 7.90 7.90 93 1016.0
20260502031550 12 0 0.0 1.6 0.00 7.90 7.90 93 1015.6
20260502030050 12 0 0.0 9.7 0.00 7.90 7.90 93 1015.2
20260502024600 12 0 0.0 0.0 0.03 7.90 7.90 93 1014.8
20260502023051 13 0 0.0 0.0 0.03 7.90 7.90 93 1014.1
20260502021552 13 0 0.0 0.0 0.05 7.90 7.90 93 1014.2
20260502020046 13 0 0.0 9.7 0.08 7.90 7.90 93 1014.2
20260502014545 13 0 0.0 6.4 0.08 7.87 7.87 93 1014.0
20260502013051 13 0 0.0 17.7 0.10 7.87 7.87 93 1013.5
20260502011555 13 0 0.0 1.6 0.10 7.85 7.85 93 1013.6
20260502010107 14 0 0.0 3.2 0.15 7.82 7.82 93 1014.1
20260502004550 14 0 0.0 4.8 0.18 7.80 7.80 93 1012.8
20260502003046 15 0 0.0 0.0 0.23 7.77 7.77 94 1012.3
20260502001545 15 0 0.0 0.0 0.25 7.75 7.75 94 1013.4
20260502000044 15 0 0.0 0.0 0.28 7.67 7.67 94 1012.8
20260501234545 15 0 0.0 0.0 0.38 7.62 7.62 93 1012.3
20260501233054 15 0 0.0 4.8 0.43 7.54 7.54 93 1012.1
20260501231548 15 0 0.0 3.2 0.38 7.49 7.49 93 1011.6
20260501230059 15 0 0.0 1.6 0.28 7.39 7.39 93 1011.5
20260501224542 15 0 0.0 8.0 0.15 7.24 7.24 93 1011.7
20260501223057 15 0 0.0 9.7 0.10 7.11 7.11 93 1010.0
20260501221548 16 0 0.0 3.2 0.18 7.11 7.11 93 1009.6
20260501220053 16 108 0.0 1.6 0.20 7.11 7.11 94 1010.8
20260501214554 16 0 0.0 4.8 0.18 7.06 7.06 94 1011.8
20260501213046 15 0 0.0 6.4 0.15 7.01 7.01 93 1011.7
20260501211601 16 0 0.0 0.0 0.15 6.93 6.93 93 1011.2
20260501210048 16 0 0.0 3.2 0.25 6.91 6.91 93 1010.7
20260501204621 16 0 0.0 4.8 0.23 6.88 6.88 93 1009.8
20260501203047 16 0 0.0 1.6 0.25 6.86 6.86 93 1010.6
20260501201546 16 0 0.0 8.0 0.23 6.78 6.78 93 1009.8
20260501200046 16 0 0.0 8.0 0.15 6.65 6.65 93 1010.7
20260501194558 16 0 0.0 3.2 0.15 6.65 6.65 94 1010.8
20260501193045 16 0 0.0 1.6 0.10 6.60 6.60 94 1010.2
20260501191548 16 0 0.0 1.6 0.03 6.53 6.53 94 1010.0
20260501190044 16 0 0.0 3.2 0.05 6.50 6.50 94 1009.7
20260501184547 16 0 0.0 3.2 0.08 6.50 6.50 94 1009.0
20260501183048 16 0 0.0 4.8 0.10 6.50 6.50 94 1010.2
20260501181554 16 0 0.0 11.3 0.15 6.50 6.50 93 1008.9
20260501180054 16 0 0.0 12.9 0.13 6.45 6.45 93 1008.0
20260501174545 16 0 0.0 0.0 0.10 6.43 6.43 94 1010.0
20260501173054 16 0 0.0 0.0 0.13 6.40 6.40 94 1010.6
20260501171540 16 0 0.0 0.0 0.20 6.35 6.35 94 1011.4
20260501170045 16 0 0.0 1.6 0.25 6.32 6.32 94 1011.4
20260501164558 16 0 0.0 3.2 0.36 6.32 6.32 94 1011.3
20260501163047 16 0 0.0 0.0 0.36 6.27 6.27 94 1012.0
20260501161550 16 0 0.0 4.8 0.51 6.15 6.15 93 1012.9
20260501160057 16 0 0.0 0.0 0.46 6.07 6.07 93 1012.5